Regional Weather Roundup
Issued by NWS New Orleans/Baton Rouge, LA

Home | Current Version | Previous Version | Text Only | Print | Product List | Glossary Off
Versions: 1 2 3 4 5 6 7 8 9 10 11 12 13 14 15 16 17 18 19 20 21 22 23 24 25 26 27 28 29 30 31 32 33 34 35 36 37 38 39 40 41 42 43 44 45 46 47 48 49 50

275
ASUS44 KLIX 210105
RWRLIX
NEW ORLEANS REGIONAL WEATHER ROUNDUP
NATIONAL WEATHER SERVICE NEW ORLEANS LA
800 PM CDT WED AUG 20 2014

NOTE: "FAIR" INDICATES FEW OR NO CLOUDS BELOW 12,000 FEET WITH NO
      SIGNIFICANT WEATHER AND/OR OBSTRUCTIONS TO VISIBILITY.
      SKY/WX - SKY CONDITION AND SIGNIFICANT WEATHER.
      TMP - AIR TEMPERATURE.     DP    - DEWPOINT TEMPERATURE.
      RH  - RELATIVE HUMIDITY.   PRES  - PRESSURE.
      HI  - HEAT INDEX.          WCI   - WIND CHILL INDEX.

*  THESE STATIONS ARE NOT NWS OR FAA STATIONS AND ARE NOT UNDER
   NWS QUALITY CONTROL.

LAZ038-040-048-061>063-065>067-069-210200-
SOUTHEAST LOUISIANA

CITY           SKY/WX    TMP DP  RH WIND       PRES   REMARKS
N.O. AUDUBON   NOT AVBL
N.O. INTL ARPT CLOUDY    80  74  81 CALM      30.06R
N.O. LAKEFRONT MOCLDY    84  75  74 SW6       30.06R
N.O. DOWNTOWN*   N/A     84  73  70 SW5       30.07R
SLIDELL        MOCLDY    84  74  71 SW3       30.05S
BATON ROUGE    CLOUDY    80  74  81 S3        30.07R
BOOTHVILLE     PTCLDY    86  75  69 S8        30.07S HX  95
BELLE CHASSE   MOCLDY    82  74  76 SW3       30.06R
BOGALUSA*        N/A     84  73  70 SW6       30.06S
GALLIANO*      NOT AVBL
NEW ROADS*       N/A     77  73  88 CALM      30.06R
GONZALES*        N/A     76  76 100 CALM      30.07R
HAMMOND*       CLOUDY    79  72  78 W5        30.08R
HOUMA*         CLOUDY    76  73  91 SW3       30.07R
PORT FOURCHON* CLEAR     86  77  74 VRB6      30.08R HX  97

$$

MSZ070-080>082-210200-
SOUTHERN MISSISSIPPI

CITY           SKY/WX    TMP DP  RH WIND       PRES   REMARKS
MCCOMB         MOCLDY    81  72  74 SW5       30.06R
GULFPORT       PTCLDY    86  76  71 S7        30.05R HX  96
BILOXI         PTCLDY    85  76  74 SW9       30.05S
PASCAGOULA     PTCLDY    83  75  77 SW3       30.05S
STENNIS ARPT*  CLEAR    N/A N/A N/A SW5       30.05S

$$

COASTAL OBSERVATIONS
LAKE AND NEARSHORE STATIONS

STATION/POSITION TIME  TEMP    WIND        PRES    WAVE
                       AIR SEA DIR/SP/G            HT/PER
                 (UTC) (F)     (DEG/KT/KT) (MB)    (FT/S)
PASCAGOULA       0100   87     210/ 10/ 12 1017.3
WAVELAND YACHT   0100   86     210/  6/ 11 1017.0
GRAND ISLE       0100   85 89  220/  7/ 10 1018.7
SOUTHWEST PASS   0100   86 89  210/  4/  7 1018.5
NEW CANAL        0100   84 84  200/  6/  8 1018.3
SHELL BEACH      0100   84 83  170/  3/  4 1017.6

OFFSHORE STATIONS

STATION/POSITION TIME  TEMP    WIND        PRES    WAVE
                       AIR SEA DIR/SP/G            HT/PER
                 (UTC) (F)     (DEG/KT/KT) (MB)    (FT/S)
64 S DAUPHIN ISL 0011   86 90  220/  6/  8 1018.4

$$




USA.gov is the U.S. government's official web portal to all federal, state and local government web resources and services.